Flag for Brunei Weather past 2 weeks in Bandar Seri Begawan, Brunei

Now
79 °F

Rain showers. Partly cloudy.


Feels Like: 83 °F
Forecast: 75 / 83 °F
Wind: 8 mph from South

Location: Brunei Airport

Current Time: Mar 5, 2015 at 1:14:35 AM

Latest Report: Mar 5, 2015 at 12:30 AM


Visibility: 3 mi

Pressure: 29.89 "Hg

Humidity: 94%

Dew point: 77 °F

Location of Bandar Seri BegawanLocation

Historic Weather in Bandar Seri Begawan — Graph

°F

Bandar Seri Begawan temperature yesterday

Maximum temperature yesterday: 86 °F (at 2:00 PM)
Minimum temperature yesterday: 77 °F (at 5:30 AM)
Average temperature yesterday: 81 °F

Past Weeks' High & Low Weather Summary

 TemperatureHumidityPressure
High93 °F (Feb 28, 2:00 PM)100% (Feb 19, 4:00 AM)29.92 "Hg (Feb 19, 4:00 AM)
Low75 °F (Feb 19, 5:00 AM)49% (Feb 28, 12:30 PM)29.74 "Hg (Feb 27, 3:30 PM)
Average81 °F84%29.84 "Hg
* Reported Midnight between Feb 17 and Feb 18 — Midnight between Mar 4 and Mar 5, Bandar Seri Begawan, Weather by CustomWeather, © 2015

Note: Actual official high and low records may vary slightly from our data, if they occured in-between our weather recording intervals... More about our weather records

Advertising

Bandar Seri Begawan weather history for previous 24 hours

 ConditionsComfort  
Time TempWeatherWind HumidityBarometerVisibility
12:00 AM
Thu, Mar 5
81 °FSprinkles. Passing clouds.5 mph94%29.89 "HgN/A
11:30 PM
Wed, Mar 4
79 °FPassing clouds.2 mph94%29.89 "HgN/A
11:00 PM81 °FPassing clouds.2 mph89%29.92 "HgN/A
10:30 PM81 °FPassing clouds.2 mph89%29.92 "HgN/A
10:00 PM81 °FPassing clouds.2 mph89%29.89 "HgN/A
9:30 PM81 °FPassing clouds.3 mph89%29.89 "HgN/A
9:00 PM81 °FPassing clouds.3 mph89%29.86 "HgN/A
8:30 PM81 °FSprinkles. Partly cloudy.3 mph89%29.89 "HgN/A
8:00 PM81 °FPartly cloudy.7 mph89%29.86 "HgN/A
7:30 PM81 °FPartly cloudy.6 mph89%29.83 "HgN/A
7:00 PM81 °FPartly cloudy.6 mph89%29.83 "HgN/A
6:30 PM81 °FBroken clouds.8 mph89%29.83 "HgN/A
6:00 PM82 °FBroken clouds.8 mph84%29.80 "HgN/A
5:30 PM82 °FPartly sunny.10 mph84%29.80 "HgN/A
5:00 PM84 °FPartly sunny.12 mph79%29.80 "HgN/A
4:30 PM84 °FPartly sunny.10 mph79%29.77 "HgN/A
4:00 PM84 °FPartly sunny.12 mph74%29.77 "Hg6 mi
3:30 PM84 °FPartly sunny.13 mph74%29.80 "Hg6 mi
3:00 PM84 °FBroken clouds.12 mph79%29.80 "Hg6 mi
2:30 PM86 °FBroken clouds.13 mph75%29.80 "Hg6 mi
2:00 PM86 °FBroken clouds.12 mph75%29.83 "Hg6 mi
1:30 PM84 °FBroken clouds.10 mph79%29.86 "Hg6 mi
1:00 PM84 °FPartly sunny.9 mph79%29.86 "Hg6 mi
12:30 PM84 °FPartly sunny.9 mph79%29.86 "Hg6 mi
12:00 PM84 °FPartly sunny.9 mph79%29.86 "Hg6 mi
11:30 AM84 °FPartly sunny.8 mph74%29.89 "Hg6 mi
11:00 AM84 °FPartly sunny.6 mph74%29.89 "Hg6 mi
10:30 AM84 °FBroken clouds.5 mph74%29.89 "Hg6 mi
10:00 AM82 °FBroken clouds.1 mph79%29.89 "Hg6 mi
9:30 AM82 °FBroken clouds.2 mph84%29.89 "Hg6 mi
9:00 AM82 °FBroken clouds.3 mph79%29.89 "Hg6 mi
8:30 AM81 °FPartly sunny.2 mph84%29.89 "Hg6 mi
8:00 AM79 °FSprinkles. Broken clouds.3 mph94%29.86 "Hg5 mi
7:30 AM79 °FBroken clouds.6 mph94%29.86 "Hg4 mi
7:00 AM79 °FBroken clouds.2 mph89%29.86 "Hg6 mi
6:30 AM77 °FPartly cloudy.3 mph94%29.83 "Hg6 mi
6:00 AM77 °FPassing clouds.3 mph94%29.83 "Hg6 mi
5:30 AM77 °FPassing clouds.3 mph100%29.80 "Hg6 mi
4:30 AM79 °FPassing clouds.3 mph94%29.80 "HgN/A
4:00 AM79 °FPassing clouds.2 mph94%29.80 "HgN/A
3:30 AM79 °FPassing clouds.2 mph94%29.80 "HgN/A
3:00 AM79 °FPassing clouds.2 mph94%29.80 "HgN/A
2:30 AM79 °FPassing clouds.1 mph94%29.80 "HgN/A
2:00 AM79 °FPassing clouds.1 mph94%29.80 "HgN/A
1:30 AM79 °FPassing clouds.No wind94%29.83 "HgN/A
1:00 AM79 °FPassing clouds.3 mph94%29.83 "HgN/A
Weather by CustomWeather, © 2015

See weather overviewHow to use our weather pages